Location: Unspecified
(0.0000°N, 0.0000°E)
Time: 06:08:15
(UTC+00:00)

AO-7 - Pass Details

Date: 16 December 2017
Orbit: 1440 x 1458 km, 101.7° (Epoch: 18 July)

Event Time Altitude Azimuth Distance (km) Brightness Sun altitude
Exits shadow 03:11:15 71° 55° (NE) 1,525 ? -37.1°
Maximum altitude 03:12:08 78° 106° (ESE) 1,486 ? -36.9°
Drops below altitude 10° 03:20:29 10° 191° (SSW) 3,576 ? -35.1°
Sets 03:23:16 0° 192° (SSW) 4,554 ? -34.5°
